www.pogodaiklimat.ru

Погода и климат >> Архив погоды >> Россия >> Удмуртия >> Ижевск


АРХИВ ПОГОДЫ в Ижевске

Время (UTC), дата Ветер
(напр.,м/с)
 
Видим.   Явления Облачность Т
(С)
Тd
(С)
f
(%)
Тe
(С)
Тes
(С)
Комфортность P
(гПа)
Po
(гПа)
Тmin
(С)
Tmax
(С)
R
(мм)
R24
(мм)
S
(см)
18 18.05 В 4-6
{7}
10 км 6/4 1000 м
[Cb calv Ac trans]
+18.4 +4.6 40 +18 +18 тепло 1011.6 992.7
21 18.05 ЮВ 2-4
{6}
10 км 3/0
[Ac trans]
+15.2 +6.4 56 +15 +15 тепло 1011.2 992.2
00 19.05 ЮВ 2-4
{6}
10 км 9/0
[Ac trans]
+14.4 +6.4 59 +14 +14 тепло 1010.7 991.7
03 19.05 Ю 2-4
{5}
10 км 9/3 1000 м
[Cb calv Ac trans]
+17.4 +12.3 72 +18 +19 тепло 1010.1 991.3 +14.2
06 19.05 ЮВ 2-4
{6}
10 км 10/1 1000 м
[Cb calv Ac trans Cc]
+19.7 +13.6 68 +22 +27 комфорт 1009.3 990.7
09 19.05 ЮВ 6-9
{11}
10 км 8/3 1000 м
[Cu hum Ac trans Cc]
+25.1 +13.1 47 +27 +30 жарко 1008.0 989.7
12 19.05 ЮВ 2-4
{6}
10 км 9/0
[Ac trans]
+26.6 +6.4 28 +26 +26 жарко 1010.7 991.7
15 19.05 ЮЗ 7-10
{12}
10 км 9/4 1000 м
[Cb calv Ac trans Cc]
+24.9 +11.3 43 +26 +26 жарко 1005.9 987.5 +27.0
18 19.05 ЮЗ 4-6
{10}
10 км 8/3 1000 м
[Cb calv Ac trans Cc]
+21.0 +11.7 55 +23 +23 комфорт 1006.5 987.9
21 19.05 ЮЗ 3-5
{7}
10 км 6/0
[Ac trans]
+18.2 +11.0 63 +19 +19 тепло 1006.6 987.9
00 20.05 ЮЗ 3-5
{7}
10 км 9/6 1000 м
[Cb calv Ac trans]
+17.3 +11.7 70 +17 +17 тепло 1006.4 987.6
03 20.05 Ю 3-5
{8}
10 км 10/0
[Ac trans Ci fib]
+17.1 +11.0 67 +17 +18 тепло 1006.5 987.7 +16.3
06 20.05 ЮЗ 5-6
{7}
10 км 9/6 1500 м
[Cu med, cong Ac trans Ci fib]
+20.5 +12.9 62 +23 +24 комфорт 1006.3 987.7
09 20.05 ЮЗ 4-5
{9}
10 км гроза без осадков {ливн. осадки} 9/6 1000 м
[Cb calv Ac trans]
+18.1 +14.5 79 +18 +20 тепло 1006.4 987.7
12 20.05 З 5-6
{10}
10 км слабый ливневой дождь {гроза} 9/6 1000 м
[Cb calv Ac trans]
+18.3 +13.9 76 +18 +19 тепло 1008.3 989.6
15 20.05 С 6-7
{9}
10 км {ливн. осадки} 9/6 1000 м
[Cb calv Ac trans]
+14.5 +11.1 80 +13 +13 по сезону 1012.1 993.0 +22.0 4
18 20.05 СЗ 5-6
{8}
10 км {ливн. осадки} 9/6 1000 м
[Sc Ac trans]
+10.4 +7.0 79 +7 +7 прохладно 1016.3 996.9
21 20.05 СЗ 5-6
{7}
10 км 9/0
[Ac trans]
+8.7 +5.0 78 +5 +5 по сезону 1018.5 998.9
00 21.05 С 4-5
{7}
10 км 10/6 600 м
[Sc Ac und]
+7.5 +3.0 73 +4 +4 по сезону 1020.3 1000.6
03 21.05 СЗ 3-4
{6}
10 км 10/6 600 м
[Sc Ac und]
+7.1 +4.3 82 +4 +4 холодно 1021.7 1002.0 +6.8
06 21.05 СЗ 2-3
{5}
10 км 9/9 1000 м
[Sc]
+8.9 +4.3 73 +7 +8 холодно 1023.7 1004.0
09 21.05 С 2-4
{6}
10 км 8/8 1000 м
[Cu med, cong]
+13.3 +3.8 53 +13 +16 по сезону 1024.5 1005.1
12 21.05 С 4-6
{8}
10 км 6/0
[Ac trans Ci]
+14.9 -0.7 34 +14 +19 по сезону 1024.9 1005.6
15 21.05 СЗ 3-5
{8}
10 км ясно +15.9 -0.5 33 +16 +17 тепло 1025.1 1005.9 +16.4
18 21.05 штиль 0-2
{5}
10 км ясно +9.9 +3.2 63 +9 +9 по сезону 1026.7 1007.0
21 21.05 штиль 0-2
{3}
10 км ясно +7.7 +2.1 68 +7 +7 по сезону 1027.6 1007.7
00 22.05 штиль 0-1
{2}
10 км 1/0
[Ci fib]
+6.6 +2.2 73 +6 +6 по сезону 1028.2 1008.2
03 22.05 штиль 0-2
{3}
10 км 1/0
[Ci fib]
+10.3 +4.3 66 +10 +14 по сезону 1028.5 1008.8 +5.8
06 22.05 СЗ 4-5
{8}
10 км 1/0
[Ci fib]
+18.9 +5.1 40 +19 +27 тепло 1027.1 1008.0
09 22.05 З 4-6
{10}
10 км ясно +23.3 +5.1 31 +23 +33 комфорт 1025.6 1006.8
12 22.05 СЗ 4-7
{11}
10 км ясно +25.1 +4.6 27 +25 +30 комфорт 1024.5 1005.9
15 22.05 З 4-7
{11}
10 км ясно +24.9 +5.5 29 +25 +25 комфорт 1024.0 1005.4 +25.8
18 22.05 З 1-2
{7}
10 км ясно +20.7 +5.9 38 +23 +23 комфорт 1024.6 1005.7
21 22.05 З 1-2
{4}
10 км ясно +16.4 +6.4 52 +17 +17 тепло 1025.2 1006.1
00 23.05 ЮЗ 1-2
{4}
10 км 3/0
[Ci fib]
+13.2 +7.0 66 +14 +14 тепло 1026.3 1006.9
03 23.05 штиль 0
{2}
10 км 3/0
[Ci fib]
+15.9 +9.5 66 +16 +20 тепло 1026.3 1007.1 +13.0
06 23.05 штиль 0-2
{4}
10 км ясно +21.6 +10.5 49 +23 +39 комфорт 1025.1 1006.3
09 23.05 З 4-6
{8}
10 км 9/1 1500 м
[Cu hum Ac trans Ci]
+24.6 +6.2 31 +25 +29 комфорт 1024.0 1005.4
12 23.05 З 4-6
{9}
10 км слабый ливневой дождь 10/4 1000 м
[Cb calv Ac und]
+22.9 +5.1 31 +23 +24 комфорт 1022.9 1004.1
15 23.05 ЮЗ 2-5
{7}
10 км {ливн. осадки} 9/0
[Ac trans Ci fib]
+21.3 +7.8 42 +22 +23 комфорт 1021.3 1002.5 +25.6 0.0
18 23.05 ЮЗ 2-4
{6}
10 км {ливн. осадки} 4/0
[Ac trans Ci fib]
+18.9 +7.6 48 +20 +20 тепло 1019.6 1000.7
21 23.05 ЮЗ 2-4
{6}
10 км 6/0
[Ac trans Ci fib]
+16.3 +7.6 56 +16 +16 тепло 1018.7 999.6
00 24.05 З 2-3
{5}
10 км 10/0
[Ac trans Ci fib]
+14.0 +8.2 68 +14 +14 тепло 1017.1 997.9
03 24.05 ЮЗ 2-3
{5}
10 км 10/0
[Ac trans Ci fib]
+16.9 +9.7 63 +17 +19 тепло 1016.1 997.1 +13.6
06 24.05 З 5-6
{7}
10 км 8/4 1500 м
[Cu hum Ci fib]
+21.3 +8.6 44 +22 +26 комфорт 1015.7 997.0
09 24.05 З 6-9
{11}
10 км 9/6 1500 м
[Cu med, cong Ci fib]
+22.3 +8.1 40 +23 +25 комфорт 1015.5 996.9
12 24.05 З 5-8
{10}
10 км 10/6 1000 м
[Sc Ac trans Ci fib]
+22.4 +8.2 40 +24 +24 комфорт 1015.2 996.6
15 24.05 СЗ 5-6
{8}
10 км 9/6 1000 м
[Cb calv Ac trans]
+18.5 +10.0 58 +19 +19 тепло 1015.8 997.0 +23.4
18 24.05 штиль 0-3
{6}
10 км слабый дождь 10/6 1000 м
[Sc Ac As]
+15.1 +10.2 73 +15 +15 тепло 1016.7 997.5
21 24.05 В 2-3
{4}
10 км слабый дождь 10/6 1000 м
[Sc Ac As]
+11.1 +9.0 87 +10 +10 по сезону 1017.3 997.8
00 25.05 СВ 3-4
{5}
10 км {дождь} 10/4 1000 м
[Sc Ac As]
+8.4 +5.0 79 +6 +6 по сезону 1017.3 997.7
03 25.05 СВ 2-3
{4}
10 км 9/0
[Ac trans]
+8.3 +5.1 80 +6 +8 прохладно 1017.7 998.1 +7.9 1
06 25.05 С 2-4
{7}
10 км 10/4 1000 м
[Sc diur, vesp Ac trans Ci fib]
+11.3 -1.7 40 +11 +14 прохладно 1017.4 997.9
09 25.05 С 6-9
{11}
10 км в посл. час дождь 10/6 1000 м
[Sc Ac trans Ci fib]
+7.1 +3.0 75 +3 +4 очень
холодно
1018.6 998.9
12 25.05 С 5-8
{11}
10 км {дождь} 10/6 1000 м
[Cb calv Ac trans Ci fib]
+10.3 +3.8 64 +8 +8 очень
холодно
1018.7 999.2

 

Местоположение метеостанции Ижевск (Удмуртия, Россия): широта 56.83 долгота 53.45 высота над уровнем моря 159 м.

В архиве по умолчанию представлена погода в Ижевске за последнюю неделю. Архивные данные за месяц целиком и за предыдущие месяцы, начиная с января 2011 года, Вы можете получить, выбрав интересующий диапазон дат из раскрывающегося списка и нажав кнопку "Ввод!".


*Определитесь, кто Вы:
робот инопланетянин человек

Внимание! Время в таблицах - всемирное. Для получения местного времени необходимо прибавить поправку, которая в Ижевске равна 4 ч.

Смотрите также архив погоды в соседних городах и на ближайших метеорологических станциях:

Погода в Воткинске (Удмуртия, Россия) (38 км)
Погода в Чайковском (Пермский край, Россия) (39 км)
Погода в Сарапуле (Удмуртия, Россия) (44 км)
Погода в Игре (Удмуртия, Россия) (83 км)
Погода в Ножовке (Пермский край, Россия) (84 км)
Погода в Можге (Удмуртия, Россия) (88 км)
Погода в Дебесах (Удмуртия, Россия) (92 км)
Погода в Селтах (Удмуртия, Россия) (94 км)
Погода в Янауле (Башкирия, Россия) (109 км)
Погода в Мензелинске (Татарстан, Россия) (126 км)

Пояснения к столбцам:

Ветер - указаны скорость ветра в м/с - средняя за 10 мин, порывы в срок и между сроками (в фигурных скобках) и направление, откуда дует ветер: С - северный, СВ - северо-восточный, В - восточный, ЮВ - юго-восточный, Ю - южный, ЮЗ - юго-западный, З - западный, СЗ - северо-западный.
Видимость - горизонтальная дальность видимости в метрах или километрах. При видимости от 1 до 10 км при отсутствии осадков обычно наблюдается дымка, при ухудшении видимости до 1 км и менее - туман. В сухую погоду видимость может ухудшаться дымом, пылью или мглою.
Явления - указаны атмосферные явления, наблюдавшиеся в срок или в последний час перед сроком; фигурными скобками обозначены явления, наблюдавшиеся между сроками (за 1-3 часа до срока); квадратными скобками обозначены град или гололедные отложения с указанием их диаметра в мм.
Облачность - указаны через наклонную черту общая и нижняя облачность в баллах и высота нижней границы облаков в метрах; квадратными скобками обозначены формы облаков: Ci - перистые, Cs - перисто-слоистые, Cc - перисто-кучевые, Ac - высококучевые, As - высокослоистые, Sc - слоисто-кучевые, Ns - слоисто-дождевые, Cu - кучевые, Cb - кучево-дождевые. Подробнее классификацию облаков см. в Атласе облаков (PDF).
T - Температура воздуха - температура, измеренная на высоте 2 м над землей.
Td - Температура точки росы - температура, при понижении до которой содержащийся в воздухе водяной пар достигнет насыщения.
f - Относительная влажность воздуха - влажноcть воздуха, измеренная на высоте 2 м над землей.
Te - Эффективная температура - температура, которую ощущает одетый по сезону человек в тени. Характеристика душности погоды. При расчете учитывается влияние влажности воздуха и скорости ветра на теплоощущения человека.
Tes - Эффективная температура на солнце - температура, которую ощущает человек, с поправкой на солнечный нагрев. Характеристика знойности погоды. Зависит от высоты солнца над горизонтом, облачности и скорости ветра. Ночью, в пасмурную погоду, а также при ветре 12 м/с и более поправка равна нулю.
P - Атмосферное давление - приведенное к уровню моря атмосферное давление.
Po - Атмосферное давление - измеренное на уровне метеостанции атмосферное давление.
Tmin - Минимальная температура - минимум температуры воздуха на высоте 2 м над землей.
Tmax - Максимальная температура - максимум температуры воздуха на высоте 2 м над землей.
R - Количество осадков - Количество выпавших осадков за период времени, мм. При наведении курсора мыши на число - период времени, за который выпало указанное количество осадков.
R24 - Количество осадков - Количество выпавших осадков за 24 часа, мм.
S - Снежный покров - Высота снежного покрова, см. При наведении курсора мыши на число - состояние снежного покрова и степень покрытия местности в баллах.